[Date Prev][Date Next][Thread Prev][Thread Next] - [Date Index][Thread Index][Author Index]
2 Line ISS Keps 12-26
- Subject: [sarex] 2 Line ISS Keps 12-26
- From: "Dave Larsen PhD" <doc@xxxxxxxxxxx>
- Date: Sat, 25 Dec 2004 20:34:52 -0800
ISS
1 25544U 98067A 04360.98462963 .00018229 00000-0 14189-3 0 4443
2 25544 51.6397 66.6101 0003809 135.7218 231.5088 15.71802333348454
----
Via the sarex mailing list at AMSAT.ORG courtesy of AMSAT-NA.
To unsubscribe, send "unsubscribe sarex" to Majordomo@amsat.org
AMSAT Home